EW9023 Weather Reports


Display with metric or nautical units.
time (UTC)temp
F
wind
direction
speed
MPH
gust
MPH
rain 1hr
in
rain 24hr
in
rain mn
in
humidity
%
barometer
mb
20190619024316 84 202 6.0 9.0 0.00 0.00 0.00 68 1009.0
20190619023317 84 202 7.0 9.0 0.00 0.00 0.00 66 1008.8
20190619022317 85 202 8.0 10.0 0.00 0.00 0.00 63 1008.7
20190619021318 85 225 9.0 12.0 0.00 0.00 0.00 62 1008.7
20190619020317 86 225 10.0 11.0 0.00 0.00 0.00 60 1008.6
20190619015318 86 225 10.0 13.0 0.00 0.00 0.00 59 1008.5
20190619014317 87 202 10.0 12.0 0.00 0.00 0.00 56 1008.5
20190619013317 88 225 9.0 12.0 0.00 0.00 0.00 55 1008.4
20190619012317 88 202 10.0 13.0 0.00 0.00 0.00 55 1008.3
20190619011318 89 202 10.0 12.0 0.00 0.00 0.00 55 1008.3
20190619010333 90 202 9.0 12.0 0.00 0.00 0.00 53 1008.3
20190619005317 91 180 9.0 12.0 0.00 0.00 0.00 51 1008.3
20190619004317 91 202 10.0 11.0 0.00 0.00 0.00 48 1008.2
20190619003317 92 202 8.0 10.0 0.00 0.00 0.00 49 1008.1
20190619002317 92 202 8.0 9.0 0.00 0.00 0.00 46 1008.2
20190619001316 93 180 11.0 13.0 0.00 0.00 0.00 43 1008.2
20190619000317 93 202 10.0 12.0 0.00 0.00 0.00 43 1008.3
20190618235317 94 202 11.0 12.0 0.00 0.00 0.00 37 1008.3
20190618234316 94 202 11.0 13.0 0.00 0.00 0.00 36 1008.4
20190618233319 95 202 11.0 15.0 0.00 0.00 0.00 36 1008.4
20190618232317 96 202 12.0 14.0 0.00 0.00 0.00 28 1008.5
20190618231316 96 202 10.0 13.0 0.00 0.00 0.00 32 1008.6
20190618230317 96 202 11.0 14.0 0.00 0.00 0.00 28 1008.7
20190618225321 96 202 13.0 17.0 0.00 0.00 0.00 30 1008.6
20190618224317 96 202 12.0 15.0 0.00 0.00 0.00 30 1008.7
20190618223317 97 202 11.0 15.0 0.00 0.00 0.00 28 1008.8
20190618222317 97 202 13.0 18.0 0.00 0.00 0.00 28 1009.0
20190618221317 97 202 11.0 13.0 0.00 0.00 0.00 29 1009.1
20190618220317 97 180 14.0 17.0 0.00 0.00 0.00 30 1009.3
20190618215330 96 180 11.0 15.0 0.00 0.00 0.00 31 1009.3
20190618214316 97 180 14.0 17.0 0.00 0.00 0.00 30 1009.4
20190618213317 96 225 11.0 16.0 0.00 0.00 0.00 30 1009.5
20190618212320 96 202 8.0 10.0 0.00 0.00 0.00 34 1009.6
20190618211317 96 225 11.0 12.0 0.00 0.00 0.00 36 1009.6
20190618210317 97 180 10.0 12.0 0.00 0.00 0.00 36 1009.8
20190618205316 96 180 11.0 14.0 0.00 0.00 0.00 38 1009.8
20190618204317 96 202 9.0 12.0 0.00 0.00 0.00 38 1009.8
20190618203316 96 180 5.0 7.0 0.00 0.00 0.00 38 1009.9
20190618202316 96 202 8.0 13.0 0.00 0.00 0.00 38 1010.0
20190618201318 96 247 9.0 11.0 0.00 0.00 0.00 35 1010.1
20190618200316 96 180 10.0 14.0 0.00 0.00 0.00 34 1010.2
20190618195316 96 225 10.0 14.0 0.00 0.00 0.00 30 1010.3
20190618194316 96 180 9.0 12.0 0.00 0.00 0.00 29 1010.4
20190618193316 96 202 10.0 14.0 0.00 0.00 0.00 28 1010.5
20190618192316 95 225 6.0 11.0 0.00 0.00 0.00 26 1010.5
20190618191317 95 225 8.0 12.0 0.00 0.00 0.00 27 1010.5
20190618190316 95 180 10.0 14.0 0.00 0.00 0.00 24 1010.7
20190618185316 95 225 7.0 9.0 0.00 0.00 0.00 24 1010.8
20190618184316 94 247 4.0 6.0 0.00 0.00 0.00 24 1010.8
20190618183316 94 202 9.0 11.0 0.00 0.00 0.00 25 1010.9
20190618182316 94 202 10.0 11.0 0.00 0.00 0.00 20 1011.0
20190618181316 94 202 11.0 13.0 0.00 0.00 0.00 18 1011.0
20190618180316 93 202 4.0 9.0 0.00 0.00 0.00 18 1011.1
20190618175316 93 180 9.0 17.0 0.00 0.00 0.00 18 1011.1
20190618174316 93 202 8.0 10.0 0.00 0.00 0.00 19 1010.9
20190618173318 93 225 8.0 9.0 0.00 0.00 0.00 20 1011.0
20190618172316 92 180 11.0 14.0 0.00 0.00 0.00 20 1010.9
20190618171316 92 202 10.0 13.0 0.00 0.00 0.00 18 1010.9
20190618170316 92 180 11.0 13.0 0.00 0.00 0.00 23 1010.8
20190618165316 92 135 10.0 12.0 0.00 0.00 0.00 20 1010.7
20190618164317 92 180 8.0 10.0 0.00 0.00 0.00 21 1010.7
20190618163316 91 157 9.0 12.0 0.00 0.00 0.00 24 1010.7
20190618162316 91 180 10.0 13.0 0.00 0.00 0.00 23 1010.6
20190618161316 90 180 10.0 14.0 0.00 0.00 0.00 23 1010.6
20190618160316 89 135 8.0 9.0 0.00 0.00 0.00 25 1010.4
20190618155316 88 157 9.0 11.0 0.00 0.00 0.00 27 1010.5
20190618154318 87 157 8.0 9.0 0.00 0.00 0.00 29 1010.6
20190618153317 86 157 8.0 10.0 0.00 0.00 0.00 32 1010.5
20190618152316 85 157 10.0 13.0 0.00 0.00 0.00 35 1010.5
20190618151318 85 157 7.0 8.0 0.00 0.00 0.00 36 1010.5
20190618150323 84 135 5.0 7.0 0.00 0.00 0.00 41 1010.4
20190618145315 83 157 6.0 8.0 0.00 0.00 0.00 42 1010.4
20190618144316 82 135 5.0 6.0 0.00 0.00 0.00 45 1010.3
20190618143316 80 135 3.0 4.0 0.00 0.00 0.00 51 1010.2
20190618142316 78 135 3.0 4.0 0.00 0.00 0.00 56 1010.0
20190618141316 76 22 2.0 3.0 0.00 0.00 0.00 60 1010.0
20190618140316 75 22 1.0 2.0 0.00 0.00 0.00 61 1010.0
20190618135316 73 0.0 0.0 0.00 0.00 0.00 62 1009.9
20190618134316 72 0.0 1.0 0.00 0.00 0.00 64 1009.7
20190618133316 70 0.0 0.0 0.00 0.00 0.00 67 1009.6
20190618132315 69 0.0 0.0 0.00 0.00 0.00 69 1009.5
20190618131324 67 0.0 0.0 0.00 0.00 0.00 71 1009.3
20190618130316 67 0.0 0.0 0.00 0.00 0.00 71 1009.2
20190618125315 66 0.0 0.0 0.00 0.00 0.00 72 1009.1
20190618124316 66 0.0 0.0 0.00 0.00 0.00 75 1009.0
20190618123315 66 0.0 0.0 0.00 0.00 0.00 77 1008.8
20190618122324 66 0.0 0.0 0.00 0.00 0.00 79 1008.7
20190618121319 66 0.0 0.0 0.00 0.00 0.00 82 1008.6
20190618120317 66 22 1.0 1.0 0.00 0.00 0.00 82 1008.5
20190618115318 66 22 1.0 2.0 0.00 0.00 0.00 82 1008.4
20190618114317 66 22 2.0 3.0 0.00 0.00 0.00 81 1008.4
20190618113317 66 22 2.0 3.0 0.00 0.00 0.00 81 1008.4
20190618112317 66 22 2.0 3.0 0.00 0.00 0.00 82 1008.4
20190618111317 66 22 3.0 4.0 0.00 0.00 0.00 84 1008.4
20190618110317 66 0.0 0.0 0.00 0.00 0.00 84 1008.3
20190618105317 67 0.0 0.0 0.00 0.00 0.00 87 1008.2
20190618104318 67 0.0 0.0 0.00 0.00 0.00 87 1008.1
20190618103315 68 0.0 0.0 0.00 0.00 0.00 87 1008.1
20190618102318 68 0.0 0.0 0.00 0.00 0.00 87 1008.1
20190618101327 68 0.0 0.0 0.00 0.00 0.00 87 1008.1
20190618100318 69 0.0 0.0 0.00 0.00 0.00 88 1008.1
20190618095317 68 0.0 0.0 0.00 0.00 0.00 87 1008.1
20190618094317 68 0.0 0.0 0.00 0.00 0.00 87 1008.0
20190618093317 68 0.0 0.0 0.00 0.00 0.00 87 1008.0
20190618092317 69 0.0 0.0 0.00 0.00 0.00 88 1007.9
20190618091317 69 0.0 0.0 0.00 0.00 0.00 87 1008.0
20190618090319 69 0.0 0.0 0.00 0.00 0.00 86 1008.0
20190618085317 69 0.0 0.0 0.00 0.00 0.00 86 1008.1
20190618084325 70 0.0 0.0 0.00 0.00 0.00 86 1008.2
20190618083317 70 0.0 0.0 0.00 0.00 0.00 85 1008.2
20190618082318 70 0.0 0.0 0.00 0.00 0.00 84 1008.2
20190618081318 70 0.0 0.0 0.00 0.00 0.00 84 1008.2
20190618080324 70 0.0 0.0 0.00 0.00 0.00 84 1008.2
20190618075317 71 0.0 0.0 0.00 0.00 0.00 85 1008.1
20190618074317 71 0.0 0.0 0.00 0.00 0.00 84 1008.0
20190618073317 71 0.0 0.0 0.00 0.00 0.00 84 1008.1
20190618072323 72 157 2.0 3.0 0.00 0.00 0.00 84 1008.1
20190618071317 72 0.0 0.0 0.00 0.00 0.00 80 1008.1
20190618070317 73 0.0 0.0 0.00 0.00 0.00 80 1008.2
20190618065318 74 0.0 0.0 0.00 0.00 0.00 84 1008.3
20190618064318 74 0.0 0.0 0.00 0.00 0.00 83 1008.3
20190618063318 76 202 1.0 1.0 0.00 0.00 0.00 85 1008.4
20190618062318 76 202 3.0 3.0 0.00 0.00 0.00 86 1008.4
20190618061318 76 202 2.0 2.0 0.00 0.00 0.00 85 1008.3
20190618060318 77 202 2.0 2.0 0.00 0.00 0.00 84 1008.4
20190618055324 77 202 3.0 4.0 0.00 0.00 0.00 84 1008.4
20190618054319 77 202 4.0 5.0 0.00 0.00 0.00 84 1008.4
20190618053317 77 202 4.0 5.0 0.00 0.00 0.00 85 1008.4
20190618052316 77 202 4.0 4.0 0.00 0.00 0.00 84 1008.3
20190618051317 77 180 4.0 4.0 0.00 0.00 0.00 82 1008.2
20190618050317 78 180 3.0 4.0 0.00 0.00 0.00 82 1008.2
20190618045318 78 180 2.0 3.0 0.00 0.00 0.00 82 1008.1
20190618044317 78 180 3.0 3.0 0.00 0.00 0.00 82 1008.1
20190618043317 78 180 3.0 4.0 0.00 0.00 0.00 81 1008.0
20190618042318 79 180 3.0 4.0 0.00 0.00 0.00 82 1007.8
20190618041318 79 180 4.0 5.0 0.00 0.00 0.00 82 1007.6
20190618040317 80 180 4.0 5.0 0.00 0.00 0.00 81 1007.5
20190618035319 80 202 6.0 7.0 0.00 0.00 0.00 80 1007.4
20190618034317 80 225 5.0 6.0 0.00 0.00 0.00 77 1007.2
20190618033317 81 225 3.0 4.0 0.00 0.00 0.00 75 1007.1
20190618032318 81 225 5.0 6.0 0.00 0.00 0.00 73 1007.0
20190618031318 82 225 4.0 5.0 0.00 0.00 0.00 69 1006.8
20190618030319 83 225 3.0 4.0 0.00 0.00 0.00 64 1006.8
20190618025317 84 225 4.0 5.0 0.00 0.00 0.00 58 1006.7